カタログに戻る

SL-8 R/B

運用中PO
NORAD 10600·ROCKET BODY·🇷🇺 Russia

打ち上げ Jan 17, 1978 から Plesetsk Cosmodrome

Loading…

次のパス (今後24時間)

TLE

最新Source: Space-Track

元期: Sep 14, 2026, 08:22 UTC

1 10600U 78007B   26257.34914397  .00000141  00000-0  12277-3 0  9999
2 10600  82.9368 282.4222 0047713 186.9369 173.1135 13.78853145446887

AllMySatでSL-8 R/Bをリアルタイム追跡

Download on the App Store